Weather History for KHDC - January, 2013

Change the Weather History Date:

Saturday, January 19, 2013

  Actual Average (KMSY) Record (KMSY)
Temperature  
Mean Temperature 50 °F -  
Max Temperature 66 °F 61 °F 80 °F (1982)
Min Temperature 33 °F 44 °F 19 °F (1977)
Degree Days  
Heating Degree Days 16    
Moisture  
Dew Point 43 °F    
Average Humidity 84    
Maximum Humidity 100    
Minimum Humidity 49    
Precipitation  
Precipitation 0.00 in - - ()
Sea Level Pressure  
Sea Level Pressure 30.33 in    
Wind  
Wind Speed 1 mph (South)    
Max Wind Speed 9 mph    
Max Gust Speed -    
Visibility 10 miles    
Events      
Averages and records for this station are not official NWS values.
T = Trace of Precipitation, MM = Missing Value Source: NWS Daily Summary

Daily Weather History Graph

Daily Weather History Graph

Search for Another Location

Airport or City:

Trip Planner

Search our weather history database for the weather conditions in past years. The results will help you decide how hot, cold, wet, or windy it might be!

Date:

Astronomy

Jan. 19, 2013 Rise Set
Actual Time 6:58 AM CST 5:26 PM CST
Civil Twilight 6:32 AM CST 5:52 PM CST
Nautical Twilight 6:03 AM CST 6:22 PM CST
Astronomical Twilight 5:34 AM CST 6:50 PM CST
Moon 11:48 AM CST (1/19) 12:38 AM CST (1/19)
Length of Visible Light 11h 20m
Length of Day
10h 28m
First Quarter, 57% of the Moon is Illuminated
Jan 19
First Quarter
Jan 26
Full
Feb 3
Last Quarter
Feb 10
New
Feb 17
First Quarter

Hourly Weather History & Observations

Time (CST) Temp. Windchill Dew Point Humidity Pressure Visibility Wind Dir Wind Speed Gust Speed Precip Events Conditions
12:15 AM 35.6 °F - 35.6 °F 100% 30.42 in 10.0 mi Calm Calm - N/A   Clear
12:35 AM 33.8 °F - 33.8 °F 100% 30.42 in 10.0 mi Calm Calm - N/A   Clear
12:55 AM 33.8 °F - 33.8 °F 100% 30.41 in 10.0 mi Calm Calm - N/A   Clear
1:15 AM 33.8 °F - 33.8 °F 100% 30.42 in 10.0 mi Calm Calm - N/A   Clear
1:35 AM 33.8 °F - 33.8 °F 100% 30.41 in 10.0 mi Calm Calm - N/A   Clear
1:55 AM 33.8 °F - 33.8 °F 100% 30.41 in 10.0 mi Calm Calm - N/A   Clear
2:15 AM 33.8 °F - 33.8 °F 100% 30.40 in 10.0 mi Calm Calm - N/A   Clear
2:35 AM 33.8 °F 30.8 °F 33.8 °F 100% 30.40 in 10.0 mi NNW 3.5 mph - N/A   Clear
2:55 AM 33.8 °F - 33.8 °F 100% 30.39 in 10.0 mi Calm Calm - N/A   Clear
3:15 AM 33.8 °F - 33.8 °F 100% 30.39 in 10.0 mi Calm Calm - N/A   Clear
3:35 AM 35.6 °F - 35.6 °F 100% 30.38 in 10.0 mi Calm Calm - N/A   Clear
3:55 AM 37.4 °F - 37.4 °F 100% 30.38 in 10.0 mi Calm Calm - N/A   Mostly Cloudy
4:15 AM 37.4 °F 34.9 °F 37.4 °F 100% 30.37 in 10.0 mi NNW 3.5 mph - N/A   Overcast
4:35 AM 39.2 °F 37.0 °F 39.2 °F 100% 30.37 in 10.0 mi NNW 3.5 mph - N/A   Overcast
4:55 AM 39.2 °F 37.0 °F 39.2 °F 100% 30.37 in 10.0 mi North 3.5 mph - N/A   Overcast
5:15 AM 39.2 °F - 39.2 °F 100% 30.37 in 10.0 mi Calm Calm - N/A   Overcast
5:35 AM 39.2 °F 37.0 °F 39.2 °F 100% 30.37 in 10.0 mi North 3.5 mph - N/A   Overcast
5:55 AM 39.2 °F - 39.2 °F 100% 30.37 in 7.0 mi Calm Calm - N/A   Overcast
6:55 AM 39.2 °F - 39.2 °F 100% 30.38 in 7.0 mi Calm Calm - N/A   Overcast
7:15 AM 39.2 °F - 39.2 °F 100% 30.38 in 10.0 mi Calm Calm - N/A   Mostly Cloudy
7:55 AM 41.0 °F - 41.0 °F 100% 30.38 in 10.0 mi Calm Calm - N/A   Clear
8:15 AM 42.8 °F - 41.0 °F 93% 30.38 in 10.0 mi Calm Calm - N/A   Scattered Clouds
8:35 AM 46.4 °F - 42.8 °F 87% 30.39 in 10.0 mi Calm Calm - N/A   Scattered Clouds
9:55 AM 53.6 °F - 42.8 °F 67% 30.40 in 10.0 mi Calm Calm - N/A   Clear
10:15 AM 53.6 °F - 44.6 °F 72% 30.39 in 10.0 mi ESE 3.5 mph - N/A   Clear
10:35 AM 55.4 °F - 44.6 °F 67% 30.39 in 10.0 mi Calm Calm - N/A   Clear
11:15 AM 55.4 °F - 44.6 °F 67% 30.37 in 10.0 mi Calm Calm - N/A   Clear
11:35 AM 57.2 °F - 44.6 °F 63% 30.36 in 10.0 mi Calm Calm - N/A   Clear
11:55 AM 57.2 °F - 44.6 °F 63% 30.35 in 10.0 mi Calm Calm - N/A   Clear
12:15 PM 59.0 °F - 44.6 °F 59% 30.34 in 10.0 mi Calm Calm - N/A   Clear
12:35 PM 59.0 °F - 46.4 °F 63% 30.32 in 10.0 mi Calm Calm - N/A   Clear
12:55 PM 60.8 °F - 46.4 °F 59% 30.31 in 10.0 mi Calm Calm - N/A   Clear
1:15 PM 62.6 °F - 46.4 °F 55% 30.30 in 10.0 mi Calm Calm - N/A   Clear
1:35 PM 62.6 °F - 46.4 °F 55% 30.29 in 10.0 mi Calm Calm - N/A   Clear
1:55 PM 64.4 °F - 46.4 °F 52% 30.28 in 10.0 mi Calm Calm - N/A   Clear
2:15 PM 64.4 °F - 46.4 °F 52% 30.27 in 10.0 mi Calm Calm - N/A   Clear
2:35 PM 66.2 °F - 46.4 °F 49% 30.27 in 10.0 mi South 5.8 mph - N/A   Clear
2:55 PM 66.2 °F - 46.4 °F 49% 30.27 in 10.0 mi SSW 9.2 mph - N/A   Clear
3:15 PM 64.4 °F - 48.2 °F 56% 30.26 in 10.0 mi SSW 5.8 mph - N/A   Clear
3:35 PM 62.6 °F - 48.2 °F 59% 30.26 in 10.0 mi South 8.1 mph - N/A   Clear
3:55 PM 64.4 °F - 48.2 °F 56% 30.26 in 10.0 mi South 8.1 mph - N/A   Clear
4:15 PM 60.8 °F - 48.2 °F 63% 30.26 in 10.0 mi South 6.9 mph - N/A   Clear
4:35 PM 60.8 °F - 48.2 °F 63% 30.27 in 10.0 mi South 3.5 mph - N/A   Clear
4:55 PM 60.8 °F - 48.2 °F 63% 30.27 in 10.0 mi SSE 4.6 mph - N/A   Clear
5:15 PM 57.2 °F - 46.4 °F 67% 30.26 in 10.0 mi Calm Calm - N/A   Clear
5:35 PM 57.2 °F - 46.4 °F 67% 30.27 in 10.0 mi SE 3.5 mph - N/A   Clear
5:55 PM 55.4 °F - 46.4 °F 72% 30.27 in 10.0 mi Calm Calm - N/A   Clear
6:15 PM 53.6 °F - 46.4 °F 77% 30.27 in 10.0 mi Calm Calm - N/A   Clear
6:35 PM 51.8 °F - 46.4 °F 82% 30.27 in 10.0 mi Calm Calm - N/A   Clear
6:55 PM 50.0 °F - 48.2 °F 94% 30.27 in 10.0 mi Calm Calm - N/A   Clear
7:15 PM 50.0 °F - 46.4 °F 87% 30.27 in 10.0 mi Calm Calm - N/A   Clear
7:35 PM 48.2 °F - 46.4 °F 93% 30.28 in 10.0 mi Calm Calm - N/A   Clear
7:55 PM 46.4 °F - 46.4 °F 100% 30.28 in 10.0 mi Calm Calm - N/A   Clear
8:15 PM 46.4 °F - 44.6 °F 93% 30.28 in 10.0 mi Calm Calm - N/A   Clear
8:35 PM 46.4 °F - 46.4 °F 100% 30.27 in 10.0 mi Calm Calm - N/A   Clear
8:55 PM 46.4 °F - 44.6 °F 93% 30.27 in 10.0 mi Calm Calm - N/A   Clear
9:15 PM 44.6 °F - 44.6 °F 100% 30.28 in 10.0 mi Calm Calm - N/A   Clear
9:35 PM 44.6 °F - 44.6 °F 100% 30.28 in 10.0 mi Calm Calm - N/A   Clear
9:55 PM 42.8 °F - 42.8 °F 100% 30.28 in 10.0 mi Calm Calm - N/A   Clear
10:15 PM 44.6 °F - 44.6 °F 100% 30.28 in 10.0 mi Calm Calm - N/A   Clear
10:35 PM 44.6 °F - 44.6 °F 100% 30.28 in 10.0 mi Calm Calm - N/A   Clear
10:55 PM 42.8 °F - 42.8 °F 100% 30.28 in 10.0 mi Calm Calm - N/A   Clear
11:15 PM 42.8 °F - 42.8 °F 100% 30.29 in 10.0 mi Calm Calm - N/A   Clear
11:35 PM 41.0 °F - 41.0 °F 100% 30.29 in 10.0 mi Calm Calm - N/A   Clear
11:55 PM 42.8 °F - 42.8 °F 100% 30.28 in 10.0 mi Calm Calm - N/A   Clear